Location: Bruchsal
(49.1250°N, 8.5844°E)
Time: 15:50:34
(UTC+01:00)

ISS - Visible Passes

Search period start: 25 March 2019 00:00
Search period end: 04 April 2019 01:00
Orbit: 408 x 411 km, 51.6° (Epoch: 25 March)

Date Brightness Start Highest point End Pass type
(mag) Time Alt. Az. Time Alt. Az. Time Alt. Az.
25 Mar -3.9 20:16:57 10° WSW 20:20:16 88° NNW 20:21:38 33° ENE visible
25 Mar -0.7 21:53:48 10° WNW 21:54:25 14° WNW 21:54:25 14° WNW visible
26 Mar -3.8 19:26:23 10° WSW 19:29:40 66° SSE 19:32:57 10° ENE visible
26 Mar -3.0 21:03:05 10° W 21:06:01 51° NNW 21:06:01 51° NNW visible
27 Mar -3.4 20:12:22 10° W 20:15:39 62° N 20:17:33 23° ENE visible
27 Mar -1.1 21:49:13 10° WNW 21:50:19 19° WNW 21:50:19 19° WNW visible
28 Mar -3.7 19:21:39 10° WSW 19:24:58 76° NNW 19:28:17 10° ENE visible
28 Mar -3.3 20:58:31 10° WNW 21:01:45 53° N 21:01:45 53° N visible
29 Mar -3.2 20:07:47 10° W 20:11:02 53° N 20:13:09 19° ENE visible
29 Mar -1.4 21:44:31 10° WNW 21:45:54 23° WNW 21:45:54 23° WNW visible
30 Mar -3.7 20:53:50 10° WNW 20:57:08 64° NNE 20:57:16 64° NNE visible
31 Mar -3.3 21:03:07 10° WNW 21:06:24 55° N 21:08:35 19° E visible
31 Mar -1.7 22:39:46 10° WNW 22:41:21 25° W 22:41:21 25° W visible
01 Apr -4.0 21:49:04 10° WNW 21:52:23 86° SSW 21:52:40 73° SE visible
02 Apr -3.7 20:58:20 10° WNW 21:01:40 73° NNE 21:03:59 18° E visible
02 Apr -1.7 22:35:07 10° W 22:36:44 22° WSW 22:36:44 22° WSW visible
03 Apr -3.3 21:44:16 10° WNW 21:47:29 48° SSW 21:48:04 41° S visible
